Regional Weather Roundup
Issued by NWS Albany, NY

Home | Current Version | Previous Version | Text Only | Print | Product List | Glossary On
Versions: 1 2 3 4 5 6 7 8 9 10 11 12 13 14 15 16 17 18 19 20 21 22 23 24 25 26 27 28
000
ASUS41 KALY 050210
RWRALY

NEW YORK STATE HOURLY WEATHER ROUNDUP
NATIONAL WEATHER SERVICE ALBANY NY
900 PM EST SUN DEC 04 2016

NOTE: "FAIR" INDICATES FEW OR NO CLOUDS BELOW 12,000 FEET WITH NO
SIGNIFICANT WEATHER AND/OR NO OBSTRUCTIONS TO VISIBILITY.

NYZ032-033-038>043-046>054-057>066-NYZ062>081-082-084-050300-
EAST


CITY           SKY/WX    TMP DP  RH WIND       PRES   REMARKS
ALBANY         CLOUDY    25  18  74 CALM      30.19F
GLENS FALLS    CLEAR     22  17  81 CALM      30.19F
POUGHKEEPSIE   MOCLDY    29  23  78 CALM      30.18F
NEWBURGH       CLOUDY    32  25  74 NE8       30.19F WCI  25
MONTGOMERY     MOCLDY    31  23  72 N5        30.17F WCI  26
WHITE PLAINS   MOCLDY    35  20  54 CALM      30.16F
ISLIP          CLOUDY    34  25  69 CALM      30.18F
NEW YORK CITY  CLOUDY    43  24  47 E9        30.17F
CENTRAL PARK   CLOUDY    41  24  51 CALM      30.19F
$$

NYZ005>009-017-018-044>046-055-056-050300-
CENTRAL


CITY           SKY/WX    TMP DP  RH WIND       PRES   REMARKS
FULTON         PTCLDY    30  23  75 E6        30.09F WCI  24
SYRACUSE       MOCLDY    28  22  78 E8        30.10F WCI  20
ROME           PTCLDY    25  22  88 SE6       30.14F WCI  18
ELMIRA         MOCLDY    36  24  62 E5        30.04F WCI  32
BINGHAMTON     CLOUDY    29  23  78 SE3       30.04F
MONTICELLO     CLOUDY    28  21  74 SE6       30.13S WCI  22
$$

NYZ026>034-041>043-087-050300-
NORTH


CITY           SKY/WX    TMP DP  RH WIND       PRES   REMARKS
WATERTOWN      CLOUDY    22  18  85 E5        30.12F WCI  16
FORT DRUM      NOT AVBL
OGDENSBURG     FAIR      22  20  93 CALM      30.15F
MASSENA        CLEAR     22  18  85 CALM      30.17F
SARANAC LAKE   CLOUDY    13  12  96 NE3       30.05F
PLATTSBURGH    CLEAR     26  20  77 SW5       30.18F WCI  20
$$

NYZ001>004-010>016-019>021-085-050300-
WEST


CITY           SKY/WX    TMP DP  RH WIND       PRES   REMARKS
NIAGARA FALLS  CLOUDY    38  26  62 E8        29.98F WCI  32
BUFFALO        CLOUDY    37  25  61 E7        29.98F WCI  32
DUNKIRK        CLOUDY    38  27  64 E10       29.92F WCI  31
JAMESTOWN      CLOUDY    34  25  69 SE10      29.87F WCI  26
WELLSVILLE     CLOUDY    34  24  67 SE10      29.95F WCI  26
ROCHESTER      CLOUDY    35  27  72 SE8       30.04F WCI  29
PENN YAN       CLOUDY    35  25  66 SE7       30.04F WCI  29
$$

             KEY
       WCI = WIND CHILL INDEX
       VSB = VISIBILITY
       HX  = HEAT INDEX
$$




USA.gov is the U.S. government's official web portal to all federal, state and local government web resources and services.